Content
SEND FEEDBACK

Daily
Averages
Monthly
Summary
United States of America

MANGILAO, GUAM


Home > North America > United States > Guam
Elevation: 60 feet     Latitude: 13 27N     Longitude: 144 49E

WEATHER
 
SELECT A DAY
Number of Records: 342,429;   Date Range: 1/1/95 - 9/3/14
 
SHARE

PRINT THIS DATA

[ ← Previous Day ]
WEATHER ALMANAC - MARCH 4, 2013
[ Next Day → ]
[ °C ]   °F
Weather ElementAverageHighLow
Temperature79.1 °F86 °F (2:24 pm)76.6 °F (6:55 pm)
Dewpoint75.5 °F77 °F (1:29 pm)73.4 °F (12:22 am)
Humidity88.9 %94 % (4:33 am)74 % (12:51 pm)
Barometer29.83 in29.88 in (10:35 pm)29.78 in (2:55 am)
Wind Speed11.3 mph17.3 mph (5:54 pm)
Wind Gust21.9 mph (5:54 pm)
Weather ElementAverage
Visibility9.5 mi
Wind DirectionENE (82.2 °)

Weather ElementTotal
Precipitation---
Cooling Degree Days16.3 (Base 65)
Growing Degree Days31.3 (Base 50)
Averaged from 116 records on March 4, 2013
WEATHER CONDITIONS BREAKOUT
WIND DIRECTION BREAKOUT
WEATHER BY HOUR - MARCH 4, 2013
[ °C ]   °F
Local TimeTemperatureDewpointHumidityBarometerVisibilityWind DirectionWind SpeedGust SpeedPrecipitationEventsConditions
12:22 AM78.8 °F73.4 °F83 %29.81 in10.0 miEast (80°)12.7 mphMostly Cloudy
12:26 AM78.8 °F73.4 °F83 %29.81 in10.0 miEast (90°)12.7 mphScattered Clouds
12:28 AM78.8 °F73.4 °F83 %29.81 in10.0 miEast (90°)11.5 mphMostly Cloudy
12:30 AM78.8 °F75.2 °F89 %29.81 in10.0 miEast (90°)10.4 mphScattered Clouds
12:36 AM78.8 °F75.2 °F89 %29.81 in10.0 miEast (80°)10.4 mphMostly Cloudy
12:53 AM78.8 °F73.4 °F83 %29.81 in10.0 miEast (90°)10.4 mphScattered Clouds
12:55 AM77.9 °F74.1 °F88 %29.81 in10.0 miEast (100°)10.4 mphScattered Clouds
12:59 AM78.8 °F75.2 °F89 %29.81 in10.0 miEast (90°)9.2 mphMostly Cloudy
1:55 AM77.9 °F74.3 °F89 %29.80 in10.0 miEast (80°)10.4 mphMostly Cloudy
2:32 AM77.0 °F73.4 °F89 %29.79 in10.0 miEast (90°)12.7 mphMostly Cloudy
2:34 AM77.0 °F73.4 °F89 %29.79 in10.0 miEast (80°)12.7 mphScattered Clouds
2:55 AM77.7 °F74.3 °F89 %29.78 in10.0 miEast (90°)10.4 mphScattered Clouds
3:01 AM78.8 °F75.2 °F89 %29.78 in10.0 miEast (90°)9.2 mphMostly Cloudy
3:55 AM77.7 °F74.3 °F89 %29.78 in10.0 miEast (80°)9.2 mphMostly Cloudy
4:33 AM77.0 °F75.2 °F94 %29.78 in10.0 miEast (80°)10.4 mphMostly Cloudy
4:42 AM77.0 °F75.2 °F94 %29.78 in10.0 miEast (80°)8.1 mphMostly Cloudy
4:51 AM77.0 °F73.4 °F89 %29.78 in10.0 miEast (80°)10.4 mphMostly Cloudy
4:53 AM77.0 °F73.4 °F89 %29.79 in10.0 miEast (80°)9.2 mphScattered Clouds
4:55 AM77.7 °F74.3 °F89 %29.79 in10.0 miEast (90°)11.5 mphScattered Clouds
5:00 AM77.0 °F73.4 °F89 %29.79 in10.0 miENE (70°)11.5 mphMostly Cloudy
5:05 AM77.0 °F75.2 °F94 %29.79 in10.0 miEast (80°)11.5 mphScattered Clouds
5:19 AM77.0 °F75.2 °F94 %29.79 in10.0 miENE (70°)10.4 mphMostly Cloudy
5:29 AM77.0 °F75.2 °F94 %29.79 in10.0 miEast (80°)11.5 mphMostly Cloudy
5:34 AM77.0 °F75.2 °F94 %29.80 in10.0 miEast (80°)10.4 mphMostly Cloudy
5:55 AM77.7 °F74.7 °F90 %29.81 in10.0 miEast (80°)10.4 mphMostly Cloudy
6:03 AM77.0 °F75.2 °F94 %29.81 in10.0 miEast (80°)10.4 mphMostly Cloudy
6:04 AM77.0 °F75.2 °F94 %29.81 in10.0 miEast (90°)10.4 mphMostly Cloudy
6:10 AM77.0 °F75.2 °F94 %29.81 in10.0 miEast (80°)10.4 mphMostly Cloudy
6:11 AM77.0 °F75.2 °F94 %29.81 in10.0 miEast (80°)10.4 mphMostly Cloudy
6:13 AM77.0 °F75.2 °F94 %29.81 in10.0 miEast (80°)10.4 mphMostly Cloudy
6:22 AM77.0 °F75.2 °F94 %29.81 in10.0 miENE (70°)9.2 mphMostly Cloudy
6:41 AM78.8 °F75.2 °F89 %29.82 in10.0 miENE (70°)11.5 mphMostly Cloudy
6:43 AM78.8 °F75.2 °F89 %29.82 in10.0 miEast (80°)12.7 mphMostly Cloudy
6:44 AM78.8 °F75.2 °F89 %29.82 in10.0 miEast (80°)12.7 mphMostly Cloudy
6:47 AM78.8 °F75.2 °F89 %29.82 in10.0 miEast (80°)10.4 mphMostly Cloudy
6:55 AM78.1 °F74.7 °F89 %29.83 in10.0 miEast (80°)10.4 mphMostly Cloudy
7:00 AM78.8 °F75.2 °F89 %29.83 in10.0 miEast (80°)11.5 mphMostly Cloudy
7:10 AM78.8 °F75.2 °F89 %29.83 in10.0 miEast (80°)11.5 mphMostly Cloudy
7:20 AM78.8 °F75.2 °F89 %29.83 in10.0 miEast (90°)12.7 mphMostly Cloudy
7:39 AM78.8 °F75.2 °F89 %29.84 in10.0 miEast (80°)11.5 mphScattered Clouds
7:46 AM78.8 °F75.2 °F89 %29.84 in10.0 miEast (80°)10.4 mphMostly Cloudy
7:48 AM78.8 °F75.2 °F89 %29.85 in10.0 miEast (80°)11.5 mphMostly Cloudy
7:49 AM78.8 °F75.2 °F89 %29.85 in10.0 miEast (80°)12.7 mphMostly Cloudy
7:53 AM78.8 °F75.2 °F89 %29.85 in10.0 miEast (80°)10.4 mphMostly Cloudy
7:55 AM79.9 °F75.0 °F85 %29.85 in10.0 miEast (90°)11.5 mphMostly Cloudy
7:59 AM80.6 °F75.2 °F84 %29.85 in10.0 miEast (90°)11.5 mphScattered Clouds
8:02 AM80.6 °F75.2 °F84 %29.85 in10.0 miEast (90°)10.4 mphMostly Cloudy
8:03 AM80.6 °F75.2 °F84 %29.85 in10.0 miEast (80°)9.2 mphMostly Cloudy
8:07 AM80.6 °F75.2 °F84 %29.85 in10.0 miEast (90°)11.5 mphMostly Cloudy
8:55 AM81.7 °F75.4 °F81 %29.86 in10.0 miEast (100°)11.5 mphMostly Cloudy
9:55 AM82.2 °F75.4 °F80 %29.86 in10.0 miEast (80°)11.5 mphOvercast
10:55 AM82.8 °F75.9 °F80 %29.86 in10.0 miENE (70°)11.5 mphMostly Cloudy
11:55 AM83.5 °F76.1 °F78 %29.84 in10.0 miENE (70°)12.7 mphOvercast
12:51 PM84.2 °F75.2 °F74 %29.82 in10.0 miEast (90°)12.7 mphScattered Clouds
12:55 PM84.2 °F75.9 °F76 %29.82 in10.0 miEast (90°)12.7 mphScattered Clouds
1:29 PM84.2 °F77.0 °F79 %29.81 in10.0 miEast (90°)11.5 mphMostly Cloudy
1:53 PM84.2 °F75.2 °F74 %29.80 in10.0 miEast (90°)10.4 mphMostly Cloudy
1:55 PM84.0 °F75.6 °F76 %29.80 in10.0 miEast (100°)10.4 mphMostly Cloudy
2:24 PM86.0 °F77.0 °F74 %29.79 in10.0 miEast (80°)10.4 mphMostly Cloudy
2:55 PM83.8 °F76.3 °F78 %29.78 in10.0 miESE (110°)10.4 mphMostly Cloudy
3:55 PM82.9 °F76.3 °F80 %29.78 in10.0 miEast (80°)11.5 mphMostly Cloudy
4:26 PM82.4 °F77.0 °F84 %29.78 in10.0 miENE (70°)15.0 mphLight Drizzle
4:28 PM82.4 °F77.0 °F84 %29.78 in10.0 miENE (70°)13.8 mphLight Drizzle
4:35 PM80.6 °F77.0 °F89 %29.78 in10.0 miENE (70°)15.0 mphMostly Cloudy
4:40 PM80.6 °F75.2 °F84 %29.79 in10.0 miENE (70°)13.8 mphMostly Cloudy
4:54 PM80.6 °F75.2 °F84 %29.79 in10.0 miENE (70°)12.7 mphMostly Cloudy
4:55 PM80.8 °F74.3 °F81 %29.79 in10.0 miEast (80°)11.5 mph0.00 inOvercast
4:59 PM80.6 °F75.2 °F84 %29.80 in10.0 miENE (70°)12.7 mphOvercast
5:10 PM82.4 °F77.0 °F84 %29.80 in10.0 miEast (80°)12.7 mphOvercast
5:23 PM80.6 °F75.2 °F84 %29.80 in10.0 miEast (80°)12.7 mphMostly Cloudy
5:40 PM80.6 °F75.2 °F84 %29.81 in10.0 miEast (80°)12.7 mphOvercast
5:51 PM80.6 °F75.2 °F84 %29.81 in8.0 miENE (70°)13.8 mphRainLight Rain
5:54 PM78.8 °F77.0 °F94 %29.81 in7.0 miEast (100°)17.3 mph21.9 mphRainLight Rain
5:55 PM79.5 °F76.1 °F89 %29.82 in4.0 miEast (100°)17.3 mph21.9 mph0.00 inRainLight Rain
5:57 PM78.8 °F75.2 °F89 %29.82 in2.5 miEast (100°)15.0 mph21.9 mphRainLight Rain
5:58 PM78.8 °F75.2 °F89 %29.82 in2.0 miEast (100°)13.8 mph21.9 mphRainLight Rain
6:06 PM77.0 °F75.2 °F94 %29.82 in2.5 miESE (110°)10.4 mphRainLight Rain
6:07 PM77.0 °F75.2 °F94 %29.82 in3.0 miESE (110°)9.2 mphRainLight Rain
6:21 PM77.0 °F75.2 °F94 %29.82 in4.0 miESE (110°)10.4 mphRainLight Rain
6:23 PM77.0 °F75.2 °F94 %29.83 in6.0 miEast (100°)9.2 mphOvercast
6:34 PM77.0 °F75.2 °F94 %29.83 in10.0 miEast (80°)13.8 mph19.6 mphOvercast
6:36 PM77.0 °F75.2 °F94 %29.83 in10.0 miEast (80°)13.8 mph19.6 mphOvercast
6:39 PM77.0 °F75.2 °F94 %29.83 in10.0 miENE (70°)13.8 mphOvercast
6:44 PM77.0 °F75.2 °F94 %29.83 in10.0 miEast (80°)12.7 mphOvercast
6:46 PM77.0 °F75.2 °F94 %29.83 in10.0 miEast (80°)10.4 mphLight Drizzle
6:52 PM77.0 °F75.2 °F94 %29.83 in10.0 miEast (80°)11.5 mphOvercast
6:55 PM76.6 °F74.1 °F92 %29.83 in10.0 miEast (80°)9.2 mph0.00 inMostly Cloudy
7:54 PM78.8 °F77.0 °F94 %29.84 in10.0 miEast (90°)6.9 mphMostly Cloudy
7:55 PM78.3 °F76.5 °F94 %29.85 in10.0 miEast (90°)6.9 mphMostly Cloudy
8:00 PM78.8 °F77.0 °F94 %29.84 in10.0 miEast (80°)9.2 mphMostly Cloudy
8:01 PM78.8 °F77.0 °F94 %29.85 in10.0 miEast (80°)10.4 mphMostly Cloudy
8:20 PM78.8 °F77.0 °F94 %29.85 in10.0 miEast (90°)8.1 mphMostly Cloudy
8:42 PM78.8 °F75.2 °F89 %29.86 in10.0 miEast (90°)12.7 mphMostly Cloudy
8:44 PM78.8 °F75.2 °F89 %29.86 in10.0 miEast (90°)11.5 mphScattered Clouds
8:55 PM78.6 °F75.6 °F90 %29.86 in10.0 miEast (90°)10.4 mphScattered Clouds
9:55 PM78.3 °F75.2 °F90 %29.87 in6.2 miEast (90°)10.4 mphMostly Cloudy
10:35 PM78.8 °F77.0 °F94 %29.88 in10.0 miENE (70°)12.7 mphOvercast
10:38 PM78.8 °F77.0 °F94 %29.88 in10.0 miENE (70°)12.7 mphOvercast
10:39 PM78.8 °F77.0 °F94 %29.88 in10.0 miENE (70°)12.7 mphOvercast
10:40 PM78.8 °F77.0 °F94 %29.88 in10.0 miENE (70°)11.5 mphMostly Cloudy
10:48 PM78.8 °F75.2 °F89 %29.88 in10.0 miEast (80°)10.4 mphMostly Cloudy
10:51 PM78.8 °F75.2 °F89 %29.88 in10.0 miENE (70°)9.2 mphMostly Cloudy
10:54 PM78.8 °F77.0 °F94 %29.88 in10.0 miEast (80°)9.2 mphMostly Cloudy
10:55 PM78.4 °F76.3 °F93 %29.88 in10.0 miEast (80°)9.2 mphMostly Cloudy
11:06 PM78.8 °F75.2 °F89 %29.88 in10.0 miENE (70°)11.5 mphMostly Cloudy
11:08 PM78.8 °F77.0 °F94 %29.88 in10.0 miEast (80°)11.5 mphMostly Cloudy
11:09 PM78.8 °F77.0 °F94 %29.88 in10.0 miENE (70°)11.5 mphMostly Cloudy
11:12 PM78.8 °F77.0 °F94 %29.88 in10.0 miEast (80°)10.4 mphMostly Cloudy
11:18 PM78.8 °F77.0 °F94 %29.88 in10.0 miEast (80°)11.5 mphOvercast
11:23 PM78.8 °F77.0 °F94 %29.88 in10.0 miENE (70°)9.2 mphOvercast
11:28 PM78.8 °F75.2 °F89 %29.88 in10.0 miENE (70°)10.4 mphMostly Cloudy
11:42 PM78.8 °F77.0 °F94 %29.88 in10.0 miENE (70°)9.2 mphOvercast
11:43 PM78.8 °F77.0 °F94 %29.88 in10.0 miENE (70°)9.2 mphOvercast
11:45 PM78.8 °F77.0 °F94 %29.88 in10.0 miENE (70°)10.4 mphOvercast
11:51 PM78.8 °F77.0 °F94 %29.88 in10.0 miENE (70°)10.4 mphOvercast
11:55 PM78.1 °F75.7 °F92 %29.88 in10.0 miENE (70°)11.5 mphOvercast
Hourly data recorded from PGUA, located miles away from Mangilao, Guam







STORIES FROM OUR PARTNERS